Home > Time Zones > World Clock > Weather > Mali > Bamako > Past weeks

Flag for Mali Weather past 2 weeks in Bamako, Mali

Now
72 °F

Clear.


Feels Like: 69 °F
Forecast: 67 / 95 °F
Wind: 1 mph from West

Location: Bamako / Senou

Current Time: Oct 21, 2014 at 3:18:30 AM

Latest Report: Oct 21, 2014 at 2:30 AM


Visibility: 10 mi

Pressure: 29.95 "Hg

Humidity: 88%

Dew point: 68 °F

Location of BamakoLocation

Historic Weather in Bamako — Graph

°F

Bamako temperature yesterday

Maximum temperature yesterday: 95 °F (at 2:30 PM)
Minimum temperature yesterday: 73 °F (at 11:30 PM)
Average temperature yesterday: 83 °F

Past Weeks' High & Low Weather Summary

 TemperatureHumidityPressure
High100 °F (Oct 17, 2:00 PM)100% (Oct 6, 4:00 AM)30.07 "Hg (Oct 6, 4:00 AM)
Low68 °F (Oct 16, 5:00 AM)17% (Oct 17, 2:00 PM)29.83 "Hg (Oct 11, 4:30 PM)
Average83 °F70%29.94 "Hg
* Reported Oct 6 2:00 AM — Oct 21 2:00 AM, Bamako, Weather by CustomWeather, © 2014

Note: Actual official high and low records may vary slightly from our data, if they occured in-between our weather recording intervals... More about our weather records

Advertising

Bamako weather history for previous 24 hours

 ConditionsComfort  
Time TempWeatherWind HumidityBarometerVisibility
2:00 AM
Oct 21
72 °FClear.No wind94%29.95 "Hg10 mi
1:30 AM73 °FClear.1 mph89%29.95 "Hg10 mi
1:00 AM73 °FClear.No wind83%29.95 "Hg10 mi
12:30 AM75 °FClear.2 mph83%29.98 "Hg10 mi
12:00 AM73 °FClear.5 mph83%30.01 "Hg10 mi
11:30 PM
Oct 20
73 °FClear.2 mph89%29.98 "Hg10 mi
11:00 PM77 °FClear.2 mph69%29.98 "Hg10 mi
10:30 PM77 °FClear.6 mph69%30.01 "Hg10 mi
10:00 PM77 °FClear.No wind74%29.98 "Hg10 mi
9:30 PM82 °FClear.5 mph55%29.98 "Hg10 mi
9:00 PM82 °FPassing clouds.5 mph55%29.98 "HgN/A
8:30 PM84 °FPassing clouds.5 mph48%29.95 "HgN/A
8:00 PM84 °FPassing clouds.5 mph45%29.95 "HgN/A
7:30 PM84 °FPassing clouds.5 mph48%29.92 "HgN/A
7:00 PM86 °FPassing clouds.6 mph43%29.92 "HgN/A
6:30 PM88 °FPassing clouds.5 mph38%29.92 "HgN/A
6:00 PM90 °FScattered clouds.8 mph33%29.92 "HgN/A
5:30 PM93 °FScattered clouds.7 mph30%29.89 "HgN/A
5:00 PM93 °FScattered clouds.7 mph30%29.89 "HgN/A
4:30 PM95 °FScattered clouds.2 mph30%29.89 "HgN/A
4:00 PM95 °FScattered clouds.8 mph28%29.89 "HgN/A
3:30 PM93 °FScattered clouds.10 mph30%29.89 "HgN/A
3:00 PM95 °FScattered clouds.7 mph28%29.89 "HgN/A
2:30 PM95 °FScattered clouds.7 mph30%29.92 "HgN/A
2:00 PM93 °FScattered clouds.8 mph32%29.92 "HgN/A
1:30 PM93 °FPartly sunny.3 mph32%29.95 "HgN/A
1:00 PM91 °FPartly sunny.6 mph38%29.95 "HgN/A
12:30 PM90 °FPartly sunny.3 mph41%29.98 "HgN/A
12:00 PM88 °FSunny.2 mph43%29.98 "Hg10 mi
11:30 AM88 °FSunny.2 mph43%30.01 "Hg10 mi
11:00 AM86 °FPassing clouds.5 mph49%30.01 "HgN/A
10:30 AM84 °FSunny.1 mph58%30.04 "Hg10 mi
10:00 AM81 °FPartly sunny.1 mph66%30.04 "HgN/A
9:30 AM77 °FPartly sunny.3 mph74%30.04 "HgN/A
9:00 AM77 °FPartly sunny.3 mph74%30.04 "HgN/A
8:30 AM75 °FPartly sunny.3 mph78%30.04 "HgN/A
8:00 AM75 °FPartly sunny.6 mph83%30.04 "HgN/A
7:30 AM75 °FPartly sunny.6 mph78%30.04 "HgN/A
7:00 AM75 °FPartly sunny.14 mph78%30.04 "HgN/A
6:30 AM75 °FThunderstorms. Partly sunny.8 mph83%30.04 "HgN/A
6:00 AM77 °FThunderstorms. Passing clouds.10 mph79%30.01 "HgN/A
5:30 AM77 °FPartly cloudy.10 mph79%29.98 "HgN/A
5:00 AM77 °FClear.7 mph79%29.98 "Hg10 mi
3:00 AM77 °FClear.9 mph83%29.95 "Hg10 mi
Weather by CustomWeather, © 2014

See weather overviewHow to use our weather pages